FW2402 Weather Reports


time (UTC)temp
F
wind
direction
speed
knots
gust
knots
rain 1hr
in
rain 24hr
in
rain mn
in
humidity
%
barometer
mb
20260903121548 77 0 0.0 1.7 0.00 0.04 0.01 97 1014.2
20260903121025 77 0 0.0 1.7 0.00 0.04 0.01 97 1014.2
20260903120521 77 0 0.0 4.3 0.00 0.04 0.01 97 1014.1
20260903120051 77 0 0.0 4.3 0.00 0.04 0.01 97 1014.1
20260903115524 77 40 0.9 4.3 0.00 0.04 0.01 97 1014.1
20260903115024 76 62 2.6 4.3 0.00 0.04 0.01 97 1014.0
20260903114541 76 69 1.7 4.3 0.00 0.04 0.01 97 1013.9
20260903114026 76 56 1.7 4.3 0.00 0.04 0.01 97 1013.9
20260903113522 76 43 0.9 4.3 0.00 0.04 0.01 97 1013.8
20260903113040 76 44 0.9 3.5 0.00 0.04 0.01 97 1013.9
20260903112524 76 43 0.9 4.3 0.00 0.04 0.01 97 1013.8
20260903112021 76 0 0.9 4.3 0.00 0.04 0.01 97 1013.6
20260903111555 76 54 0.9 2.6 0.00 0.04 0.01 97 1013.5
20260903111027 76 0 0.0 2.6 0.00 0.04 0.01 97 1013.4
20260903110520 76 0 0.0 2.6 0.00 0.04 0.01 97 1013.5
20260903110043 76 0 0.0 1.7 0.00 0.04 0.01 97 1013.5
20260903105521 76 0 0.0 1.7 0.00 0.04 0.01 97 1013.4
20260903105024 76 0 0.0 0.0 0.00 0.04 0.01 97 1013.2
20260903104601 76 0 0.0 0.0 0.00 0.04 0.01 97 1013.1
20260903104023 76 0 0.0 1.7 0.00 0.04 0.01 97 1013.3
20260903103524 76 0 0.0 1.7 0.00 0.04 0.01 97 1013.1
20260903103055 76 82 0.9 1.7 0.00 0.04 0.01 97 1013.1
20260903102519 76 0 0.0 2.6 0.00 0.04 0.01 97 1013.0
20260903102025 76 65 0.9 2.6 0.00 0.04 0.01 97 1013.0
20260903101549 76 42 0.0 1.7 0.00 0.04 0.01 97 1013.0
20260903101021 76 0 0.0 0.0 0.00 0.04 0.01 97 1013.0
20260903100524 76 0 0.0 0.0 0.00 0.04 0.01 97 1013.0
20260903100049 76 0 0.0 0.0 0.00 0.04 0.01 97 1013.0
20260903095523 76 0 0.0 0.0 0.00 0.04 0.01 97 1013.1
20260903095022 76 0 0.0 0.0 0.00 0.04 0.01 97 1013.1
20260903094549 76 0 0.0 0.0 0.00 0.04 0.01 97 1013.1
20260903094024 76 0 0.0 1.7 0.00 0.04 0.01 97 1013.0
20260903093523 76 0 0.0 1.7 0.00 0.04 0.01 97 1013.1
20260903093048 75 0 0.0 0.0 0.00 0.04 0.01 97 1013.1
20260903092518 76 0 0.0 0.0 0.00 0.04 0.01 97 1013.1
20260903092027 76 0 0.0 0.0 0.00 0.04 0.01 96 1013.1
20260903091549 76 0 0.0 0.0 0.00 0.04 0.01 96 1013.0
20260903091025 76 0 0.0 0.9 0.00 0.04 0.01 96 1013.0
20260903090521 76 0 0.0 0.9 0.00 0.04 0.01 96 1012.9
20260903090048 76 0 0.0 0.9 0.00 0.04 0.01 96 1012.9
20260903085524 76 42 0.0 1.7 0.00 0.04 0.01 96 1012.9
20260903085022 76 0 0.0 2.6 0.00 0.04 0.01 96 1012.8
20260903084546 76 30 0.0 2.6 0.00 0.04 0.01 97 1012.8
20260903084019 76 53 0.9 2.6 0.00 0.04 0.01 97 1012.8
20260903083525 76 49 0.0 1.7 0.00 0.04 0.01 97 1012.8
20260903083057 76 49 0.0 2.6 0.00 0.04 0.01 97 1012.8
20260903082529 76 49 0.0 2.6 0.00 0.04 0.01 97 1012.8
20260903082024 76 0 0.0 1.7 0.00 0.04 0.01 97 1012.8
20260903081606 76 0 0.0 2.6 0.00 0.04 0.01 97 1012.8
20260903081027 76 0 0.0 2.6 0.00 0.04 0.01 97 1012.8
20260903080531 76 74 0.0 2.6 0.00 0.04 0.01 97 1012.9
20260903080049 76 0 0.0 1.7 0.00 0.04 0.01 97 1012.9
20260903075528 76 0 0.0 1.7 0.00 0.05 0.01 97 1012.9
20260903075019 76 0 0.0 2.6 0.00 0.05 0.01 96 1012.9
20260903074547 76 48 0.0 2.6 0.00 0.05 0.01 96 1013.0
20260903074026 76 53 0.9 2.6 0.00 0.05 0.01 96 1013.0
20260903073525 76 46 0.0 2.6 0.00 0.05 0.01 96 1013.0
20260903073041 76 0 0.0 2.6 0.00 0.05 0.01 96 1013.1
20260903072524 76 35 0.0 2.6 0.00 0.05 0.01 96 1013.1
20260903072027 76 0 0.0 2.6 0.00 0.05 0.01 96 1013.2
20260903071549 76 0 0.0 2.6 0.00 0.05 0.01 96 1013.2
20260903071025 76 43 0.0 2.6 0.00 0.05 0.01 96 1013.2
20260903070523 76 0 0.0 1.7 0.00 0.05 0.01 96 1013.2
20260903070042 76 47 0.9 2.6 0.00 0.05 0.01 96 1013.2
20260903065523 76 0 0.0 2.6 0.00 0.05 0.01 96 1013.3
20260903065024 76 40 0.9 2.6 0.00 0.05 0.01 96 1013.2
20260903064547 76 36 0.9 2.6 0.00 0.05 0.01 96 1013.4
20260903064024 76 0 0.0 3.5 0.00 0.05 0.01 96 1013.3
20260903063522 76 55 0.9 3.5 0.00 0.05 0.01 96 1013.4
20260903063051 76 49 0.9 2.6 0.00 0.05 0.01 96 1013.6
20260903062521 77 42 0.0 1.7 0.00 0.05 0.01 96 1013.5
20260903062024 77 0 0.0 2.6 0.00 0.05 0.01 96 1013.6
20260903061544 77 0 0.0 2.6 0.00 0.05 0.01 96 1013.6
20260903061023 77 0 0.9 2.6 0.00 0.05 0.01 96 1013.7
20260903060524 77 51 0.9 2.6 0.00 0.05 0.01 96 1013.7
20260903060044 77 0 0.0 3.5 0.00 0.05 0.01 96 1013.7
20260903055524 77 53 0.0 3.5 0.00 0.05 0.01 96 1013.7
20260903055025 77 38 0.9 3.5 0.00 0.05 0.01 96 1013.7
20260903054555 77 27 0.9 3.5 0.00 0.05 0.01 96 1013.7
20260903054024 77 55 1.7 3.5 0.00 0.05 0.01 96 1013.8
20260903053521 77 47 0.9 2.6 0.00 0.05 0.01 96 1013.8
20260903053041 77 57 0.0 2.6 0.00 0.05 0.01 96 1014.0
20260903052524 77 50 0.9 2.6 0.00 0.05 0.01 96 1014.0
20260903052025 77 44 0.9 2.6 0.01 0.05 0.01 96 1014.1
20260903051542 77 49 0.9 2.6 0.01 0.05 0.01 96 1014.0
20260903051024 77 47 0.9 2.6 0.01 0.05 0.01 96 1014.2
20260903050525 77 50 0.9 2.6 0.01 0.05 0.01 96 1014.2
20260903050049 77 57 0.9 2.6 0.01 0.05 0.01 96 1014.2
20260903045527 77 45 0.9 2.6 0.01 0.05 0.01 96 1014.3
20260903045023 77 70 0.9 2.6 0.01 0.05 0.01 96 1014.3
20260903044547 77 0 0.0 2.6 0.01 0.05 0.01 96 1014.3
20260903044023 77 0 0.0 2.6 0.01 0.05 0.01 96 1014.4
20260903043522 77 71 0.9 3.5 0.01 0.05 0.01 96 1014.4
20260903043042 77 53 1.7 3.5 0.01 0.05 0.01 96 1014.3
20260903042520 77 57 0.9 3.5 0.01 0.05 0.01 96 1014.4
20260903042024 77 65 0.9 3.5 0.00 0.04 0.00 96 1014.5
20260903041551 77 73 1.7 3.5 0.00 0.04 0.00 96 1014.3
20260903041023 77 78 1.7 3.5 0.00 0.04 0.00 96 1014.4
20260903040523 77 30 0.9 6.1 0.00 0.04 0.00 96 1014.3
20260903040045 77 68 1.7 6.1 0.00 0.04 0.00 96 1014.5
20260903035522 78 74 2.6 5.2 0.00 0.04 0.04 96 1014.6
20260903035024 78 26 1.7 3.5 0.00 0.04 0.04 96 1014.5
20260903034543 78 55 1.7 3.5 0.00 0.04 0.04 96 1014.5
20260903034023 78 65 1.7 3.5 0.00 0.04 0.04 96 1014.5
20260903033522 78 74 0.9 4.3 0.00 0.04 0.04 96 1014.5
20260903033052 78 72 1.7 4.3 0.00 0.04 0.04 96 1014.6
20260903032528 77 55 0.9 3.5 0.00 0.04 0.04 96 1014.5
20260903032025 77 58 1.7 3.5 0.00 0.04 0.04 96 1014.5
20260903031551 77 0 0.0 2.6 0.00 0.04 0.04 96 1014.5
20260903031025 77 50 0.9 2.6 0.00 0.04 0.04 96 1014.6
20260903030528 77 0 0.0 2.6 0.00 0.04 0.04 96 1014.6
20260903030042 77 0 0.0 2.6 0.00 0.04 0.04 96 1014.5
20260903025520 77 71 0.9 2.6 0.00 0.04 0.04 96 1014.5
20260903025023 77 84 0.9 2.6 0.00 0.04 0.04 96 1014.5
20260903024542 77 80 0.9 2.6 0.00 0.04 0.04 95 1014.6
20260903024024 77 65 0.9 1.7 0.00 0.04 0.04 95 1014.6
20260903023530 77 0 0.0 0.0 0.01 0.04 0.04 95 1014.7
20260903023042 77 0 0.0 0.0 0.01 0.04 0.04 95 1014.8
20260903022519 77 0 0.0 0.0 0.01 0.04 0.04 95 1014.7
20260903022020 77 0 0.0 0.0 0.01 0.04 0.04 95 1014.6
20260903021545 77 0 0.0 0.0 0.02 0.04 0.04 95 1014.6
20260903021023 77 0 0.0 0.9 0.02 0.04 0.04 95 1014.7
20260903020527 77 0 0.0 1.7 0.03 0.04 0.04 95 1014.7
20260903020100 77 0 0.9 2.6 0.03 0.04 0.04 95 1014.7
20260903015524 77 0 0.0 2.6 0.03 0.04 0.04 95 1014.9
20260903015023 77 0 0.9 2.6 0.03 0.04 0.04 94 1014.7
20260903014544 77 0 0.0 2.6 0.03 0.04 0.04 94 1014.7
20260903014020 77 0 0.9 4.3 0.03 0.04 0.04 94 1014.6
20260903013523 78 82 1.7 4.3 0.02 0.03 0.03 94 1014.5
20260903013041 78 48 0.9 4.3 0.02 0.03 0.03 94 1014.4
20260903012526 78 68 1.7 4.3 0.02 0.03 0.03 94 1014.2
20260903012027 78 36 1.7 5.2 0.02 0.03 0.03 94 1014.1
20260903011542 78 48 1.7 7.0 0.01 0.02 0.02 94 1014.1
20260903011024 78 65 2.6 7.0 0.01 0.02 0.02 94 1014.1
20260903010523 78 44 1.7 5.2 0.00 0.01 0.01 94 1014.0
20260903010045 78 12 0.9 7.0 0.00 0.01 0.01 94 1014.0
20260903005522 79 53 2.6 7.0 0.00 0.03 0.01 94 1014.0
20260903005022 79 51 3.5 7.0 0.00 0.03 0.01 94 1014.1
20260903004542 79 58 1.7 6.1 0.00 0.03 0.01 94 1014.0
20260903004023 79 48 2.6 7.0 0.00 0.03 0.01 94 1013.9
20260903003518 79 48 2.6 7.0 0.00 0.03 0.01 94 1013.9
20260903003044 79 65 2.6 7.0 0.00 0.03 0.01 94 1014.0
20260903002523 79 47 2.6 5.2 0.00 0.03 0.01 94 1014.0
20260903002026 79 56 1.7 6.1 0.00 0.03 0.01 94 1013.9
20260903001554 79 61 2.6 7.0 0.00 0.03 0.01 93 1013.9
20260903001020 79 31 2.6 7.0 0.00 0.03 0.01 93 1013.9
20260903000523 79 36 2.6 5.2 0.00 0.03 0.01 93 1013.9
20260903000045 79 50 1.7 5.2 0.00 0.03 0.01 93 1013.9
20260902235522 79 52 1.7 5.2 0.00 0.04 0.01 93 1013.7
20260902235021 79 28 1.7 8.7 0.00 0.04 0.01 92 1013.7
20260902234543 79 0 3.5 8.7 0.00 0.04 0.01 92 1013.8
20260902234027 79 30 1.7 5.2 0.00 0.04 0.01 92 1013.8
20260902233521 80 74 1.7 5.2 0.00 0.04 0.01 92 1013.8
20260902233043 80 26 0.0 3.5 0.00 0.04 0.01 92 1013.8
20260902232525 80 0 0.0 3.5 0.00 0.04 0.01 92 1013.6
20260902232023 80 41 0.9 3.5 0.00 0.04 0.01 91 1013.7
20260902231546 80 61 0.9 3.5 0.00 0.04 0.01 91 1013.8
20260902231021 81 0 0.9 3.5 0.00 0.04 0.01 90 1013.9
20260902230518 81 38 0.0 5.2 0.00 0.04 0.01 90 1013.8
20260902230042 81 18 1.7 5.2 0.00 0.04 0.01 90 1013.7
20260902225520 81 57 1.7 5.2 0.00 0.18 0.01 90 1013.7
20260902225028 81 38 1.7 4.3 0.00 0.18 0.01 90 1013.5
20260902224540 81 52 1.7 4.3 0.00 0.18 0.01 90 1013.6
20260902224023 81 37 0.9 3.5 0.00 0.18 0.01 90 1013.6
20260902223524 81 41 0.9 3.5 0.00 0.18 0.01 90 1013.5
20260902223045 81 50 0.9 4.3 0.00 0.18 0.01 90 1013.6
20260902222518 81 32 0.9 4.3 0.00 0.18 0.01 90 1013.6
20260902222022 80 46 0.0 0.0 0.00 0.18 0.01 91 1013.6
20260902221605 80 0 0.0 2.6 0.00 0.18 0.01 90 1013.5
20260902221025 81 0 0.0 4.3 0.00 0.18 0.01 90 1013.4
20260902220524 81 71 0.0 5.2 0.00 0.18 0.01 89 1013.1
20260902220042 81 71 1.7 5.2 0.00 0.18 0.01 89 1013.0
20260902215526 80 56 1.7 5.2 0.00 0.18 0.01 90 1013.1
20260902215024 80 16 1.7 5.2 0.00 0.18 0.01 90 1013.3
20260902214541 80 0 0.0 4.3 0.00 0.18 0.01 91 1013.2
20260902214019 80 42 1.7 4.3 0.00 0.18 0.01 90 1013.1
20260902213518 80 70 2.6 7.0 0.00 0.18 0.01 89 1013.2
20260902213041 81 101 2.6 9.6 0.00 0.18 0.01 87 1013.3
20260902212520 82 59 5.2 9.6 0.00 0.18 0.01 84 1013.4
20260902212025 83 59 4.3 10.4 0.00 0.18 0.01 82 1013.4
20260902211544 83 52 4.3 13.0 0.00 0.18 0.01 82 1013.1
20260902211023 83 56 6.1 13.0 0.00 0.18 0.01 81 1013.1
20260902210523 84 34 7.8 13.0 0.00 0.18 0.01 81 1013.3
20260902210042 84 61 6.1 14.8 0.00 0.18 0.01 82 1013.4
20260902205522 85 53 7.0 14.8 0.00 0.18 0.01 82 1013.4
20260902205020 85 76 5.2 13.9 0.00 0.18 0.01 82 1013.1
20260902204600 86 52 7.8 13.9 0.00 0.18 0.01 80 1013.2
20260902204023 87 90 5.2 13.9 0.00 0.18 0.01 77 1013.1
20260902203520 87 65 3.5 9.6 0.00 0.18 0.01 79 1013.2
20260902203050 87 36 2.6 10.4 0.00 0.18 0.01 80 1013.1
20260902202520 86 82 3.5 10.4 0.00 0.18 0.01 80 1013.0
20260902202024 86 268 1.7 9.6 0.00 0.18 0.01 80 1012.9
20260902201544 86 38 3.5 9.6 0.00 0.18 0.01 79 1012.9
20260902201029 87 55 5.2 10.4 0.00 0.18 0.01 77 1012.8
20260902200522 88 29 4.3 12.2 0.00 0.18 0.01 76 1013.0
20260902200041 89 24 3.5 12.2 0.00 0.18 0.01 78 1013.0
20260902195524 88 74 7.0 12.2 0.00 0.18 0.01 75 1013.2
20260902195024 89 44 4.3 12.2 0.00 0.18 0.01 76 1013.2
20260902194553 89 38 2.6 12.2 0.00 0.18 0.01 78 1013.3
20260902194020 88 17 2.6 9.6 0.00 0.18 0.01 75 1013.4
20260902193520 89 57 2.6 9.6 0.00 0.18 0.01 74 1013.6
20260902193045 89 49 4.3 9.6 0.00 0.18 0.01 73 1013.7
20260902192520 89 192 0.9 8.7 0.00 0.18 0.01 77 1013.6
20260902192018 88 49 4.3 8.7 0.00 0.18 0.01 72 1013.7
20260902191552 89 347 0.9 7.0 0.00 0.18 0.01 74 1013.7
20260902191021 89 54 3.5 7.0 0.00 0.18 0.01 73 1013.8
20260902190520 89 56 1.7 10.4 0.00 0.18 0.01 75 1013.8
20260902190042 88 49 3.5 11.3 0.00 0.18 0.01 73 1014.0
20260902185521 88 41 4.3 11.3 0.00 0.18 0.01 72 1014.1
20260902185023 89 28 5.2 11.3 0.00 0.18 0.01 73 1014.2
20260902184541 88 346 2.6 9.6 0.00 0.18 0.01 74 1014.4
20260902184023 88 44 3.5 12.2 0.00 0.18 0.01 74 1014.4
20260902183524 87 63 4.3 12.2 0.00 0.18 0.01 76 1014.5
20260902183116 88 25 4.3 12.2 0.00 0.18 0.01 76 1014.5
20260902182522 87 49 4.3 12.2 0.00 0.18 0.01 78 1014.4
20260902182025 86 134 3.5 11.3 0.00 0.18 0.01 80 1014.5
20260902181548 85 46 2.6 11.3 0.00 0.18 0.01 80 1014.5
20260902181024 86 40 6.1 11.3 0.00 0.18 0.01 77 1014.6
20260902180524 90 10 3.5 10.4 0.00 0.18 0.01 75 1014.5
20260902180044 90 22 0.9 7.8 0.00 0.18 0.01 74 1014.5
20260902175523 90 61 0.9 7.8 0.00 0.18 0.01 77 1014.6
20260902175022 89 37 2.6 7.8 0.00 0.18 0.01 73 1014.6
20260902174543 90 51 1.7 6.1 0.00 0.18 0.01 75 1014.6
20260902174028 90 54 0.9 4.3 0.00 0.18 0.01 76 1014.6
20260902173524 89 84 1.7 4.3 0.00 0.18 0.01 75 1014.6
20260902173055 89 82 0.9 5.2 0.00 0.18 0.01 76 1014.7
20260902172525 89 25 0.9 8.7 0.00 0.18 0.01 77 1014.9
20260902172025 89 342 2.6 8.7 0.00 0.18 0.01 78 1015.0
20260902171556 88 38 2.6 7.8 0.00 0.18 0.01 79 1015.2
20260902171022 87 93 0.9 4.3 0.00 0.18 0.01 78 1015.1
20260902170522 87 278 1.7 4.3 0.00 0.18 0.01 80 1015.2
20260902170045 86 38 1.7 4.3 0.00 0.18 0.01 78 1015.3
20260902165525 86 0 0.9 4.3 0.00 0.18 0.01 83 1015.3
20260902165025 86 188 0.9 4.3 0.00 0.18 0.01 82 1015.4
20260902164600 87 204 0.9 5.2 0.00 0.18 0.01 81 1015.5
20260902164024 88 0 0.9 9.6 0.00 0.18 0.01 81 1015.5
20260902163524 87 73 4.3 9.6 0.00 0.18 0.01 79 1015.5
20260902163046 87 5 0.9 8.7 0.00 0.18 0.01 81 1015.5
20260902162525 86 328 3.5 8.7 0.00 0.18 0.01 77 1015.5
20260902162026 86 46 0.9 9.6 0.00 0.18 0.01 82 1015.5
20260902161543 84 23 2.6 10.4 0.00 0.18 0.01 85 1015.6
20260902161026 83 49 5.2 10.4 0.00 0.18 0.01 83 1015.6
20260902160525 85 53 2.6 8.7 0.00 0.18 0.01 82 1015.7
20260902160053 86 313 0.9 4.3 0.00 0.18 0.01 80 1015.8
20260902155525 88 352 0.9 7.0 0.00 0.18 0.01 84 1015.8
20260902155026 87 277 1.7 7.0 0.00 0.18 0.01 80 1015.9
20260902154555 87 62 2.6 9.6 0.00 0.18 0.01 79 1016.0
20260902154028 86 96 3.5 9.6 0.00 0.18 0.01 80 1016.1
20260902153525 86 53 2.6 8.7 0.00 0.18 0.01 82 1016.1
20260902153044 84 22 1.7 5.2 0.00 0.18 0.01 84 1016.1
20260902152521 84 271 1.7 7.8 0.00 0.18 0.01 84 1016.2
20260902152020 86 350 2.6 8.7 0.00 0.18 0.01 82 1016.2
20260902151549 86 59 3.5 10.4 0.00 0.18 0.01 80 1016.2
20260902151022 86 85 4.3 12.2 0.00 0.18 0.01 82 1016.1
20260902150524 85 51 6.1 12.2 0.00 0.18 0.01 82 1016.2
20260902150048 85 45 3.5 7.8 0.00 0.18 0.01 83 1016.2
20260902145523 85 64 2.6 7.0 0.00 0.18 0.01 85 1016.2
20260902145030 85 26 2.6 6.1 0.00 0.18 0.01 83 1016.1
20260902144545 85 56 1.7 6.1 0.00 0.18 0.01 88 1016.1
20260902144024 84 12 1.7 7.8 0.00 0.18 0.01 88 1016.0
20260902143522 83 74 1.7 7.8 0.00 0.18 0.01 88 1016.0
20260902143040 83 55 0.9 7.8 0.00 0.18 0.01 89 1016.0
20260902142524 84 45 2.6 7.8 0.00 0.18 0.01 89 1016.0
20260902142025 84 67 2.6 5.2 0.00 0.18 0.01 90 1016.1
20260902141553 82 61 1.7 7.0 0.00 0.18 0.01 91 1016.0
20260902141024 82 17 0.9 7.0 0.00 0.18 0.01 91 1016.0
20260902140525 83 61 0.9 4.3 0.00 0.18 0.01 93 1016.0
20260902140043 82 33 0.9 7.8 0.00 0.18 0.01 94 1015.9
20260902135523 81 5 1.7 7.8 0.00 0.18 0.01 94 1015.9
20260902135020 81 13 1.7 6.1 0.00 0.18 0.01 95 1015.8
20260902134543 81 81 1.7 4.3 0.00 0.18 0.01 96 1015.9
20260902134022 80 61 1.7 7.0 0.00 0.18 0.01 96 1015.9
20260902133529 80 60 2.6 7.0 0.00 0.18 0.01 97 1015.8
20260902133049 80 42 2.6 7.0 0.00 0.18 0.01 97 1015.9
20260902132527 79 29 2.6 7.8 0.00 0.18 0.01 97 1015.9
20260902132024 79 38 3.5 7.8 0.00 0.18 0.01 97 1015.9
20260902131605 79 57 0.9 4.3 0.00 0.18 0.01 97 1015.9
20260902131023 79 351 0.9 3.5 0.00 0.18 0.01 97 1015.8
20260902130519 79 13 0.9 3.5 0.00 0.18 0.01 97 1015.9
20260902130052 80 0 0.0 4.3 0.00 0.18 0.01 97 1016.0
20260902125523 79 0 0.9 4.3 0.00 0.18 0.01 97 1016.0
20260902125023 79 31 0.9 4.3 0.00 0.18 0.01 97 1016.0
20260902124540 79 55 0.9 4.3 0.00 0.18 0.01 97 1016.0
20260902124024 79 0 0.0 3.5 0.00 0.18 0.01 97 1015.9
20260902123524 78 0 0.0 4.3 0.00 0.18 0.01 97 1016.0
20260902123048 78 0 0.9 4.3 0.00 0.18 0.01 97 1015.9
20260902122524 78 0 0.0 1.7 0.00 0.18 0.01 97 1015.9